Regional Weather Roundup
Issued by NWS Wakefield, VA

Home | Current Version | Previous Version | Text Only | Print | Product List | Glossary Off
Versions: 1 2 3 4 5 6 7 8 9 10 11 12 13 14 15 16 17 18 19 20 21 22 23 24 25 26 27 28 29 30 31 32 33 34 35 36 37 38 39 40 41 42 43 44 45 46 47 48 49 50

000
ASUS41 KAKQ 281015
RWRAKQ

REGIONAL WEATHER ROUNDUP
NATIONAL WEATHER SERVICE WAKEFIELD VA
600 AM EDT SAT MAY 28 2016

Note: "fair" indicates few or no clouds below 12,000 feet with no
significant weather and/or obstructions to visibility. * = Denotes
station may not report precipitation (e.g., rain,snow,etc.),
thunder or fog.

VAZ042-051-052>054-056-281100-
NORTHERN VIRGINIA

CITY           SKY/WX    TMP DP  RH WIND       PRES   REMARKS
WASH NATIONAL  FAIR      70  64  81 S8        30.13R
DULLES         FAIR      69  63  81 S6        30.12R
FORT BELVOIR   FAIR      67  62  82 CALM      30.13R
QUANTICO       FAIR      71  61  70 SW10      30.13R
FREDERICKSBRG* FAIR      68  61  79 CALM      30.12S
STAFFORD*      FAIR      66  59  78 SE3       30.17R
WARRENTON      FAIR      69  59  69 S3        30.12R
CULPEPER*      FAIR      70  64  83 CALM      30.12S
MANASSAS*      FAIR      68  63  83 CALM      30.12R
LEESBURG*      FAIR      68  68 100 CALM      30.13R
WINCHESTER     FAIR      66  63  88 CALM      30.12R
FRONT ROYAL*   FAIR      63  63 100 CALM      30.12R
LURAY*         FAIR      61  61 100 CALM      30.14R FOG
$$

VAZ048-049-060>072-079>083-281100-
CENTRAL AND SOUTH CENTRAL VIRGINIA

CITY           SKY/WX    TMP DP  RH WIND       PRES   REMARKS
RICHMOND       FAIR      64  60  87 S3        30.15R
CHESTERFIELD*  FAIR      63  50  63 CALM      30.16S
PETERSBURG*    FAIR      62  62 100 CALM      30.16S
HANOVER        FAIR      65  58  78 S5        30.16S
TAPPAHANNOCK*  FAIR      65  60  83 S3        30.16R
QUINTON*       FAIR      65  61  89 SE3       30.15S
CHARLOTTSVILLE FAIR      68  63  84 S8        30.13R
GORDONSVILLE*  FAIR      65  64  96 SW3       30.13R
ORANGE*        FAIR      66  64  94 CALM      30.14S
LOUISA*        FAIR      70  64  83 S5        30.12S
BUMPASS*       FAIR      64  60  87 CALM      30.14S
FARMVILLE*     FAIR      62  62  98 CALM      30.14R
CREWE*         FAIR      60  60 100 CALM      30.15R
FORT PICKETT*  NOT AVBL
CHASE CITY*    FAIR      60  59  94 CALM      30.16R
CLARKSVILLE*   FAIR      59  59 100 CALM      30.15S
SOUTH HILL*    FAIR      57  56  99 CALM      30.21S
LAWRENCEVILLE* FAIR      57  57 100 CALM      30.16R
EMPORIA*         N/A     55  55 100 CALM      30.17S
$$

VAZ088>098-281100-
SOUTHEAST VIRGINIA

CITY           SKY/WX    TMP DP  RH WIND       PRES   REMARKS
NORFOLK        FAIR      64  61  90 CALM      30.16R
VIRGINIA BEACH FAIR      62  56  80 CALM      30.16R
NORFOLK NAVAL  FAIR      64  61  90 CALM      30.18R
WEST POINT*    FAIR      67  61  81 S5        30.17S
SALUDA*        FAIR      65  63  91 S3        30.16R
NEWPORT NEWS   FAIR      65  61  87 SW3       30.16S
LANGLEY AFB    FAIR      64  62  91 S6        30.16R
FORT EUSTIS    FAIR      67  60  78 S2        30.14S
WILLIAMSBURG*  FAIR      68  63  83 S5        30.17S
HR EXEC AP*      N/A     54  50  87 CALM      30.19R
FRANKLIN*      FAIR      58  56  96 CALM      30.17R
US460-WAKEFLD  FAIR      61  59  93 CALM      30.16R
$$

VAZ020-022-025-037-045-281100-
WEST CENTRAL AND SOUTHWEST VIRGINIA

CITY           SKY/WX    TMP DP  RH WIND       PRES   REMARKS
STAUNTON*      FAIR      61  61 100 CALM      30.17R FOG
WAYNESBORO*    FAIR      62  61  96 CALM      30.16R
HOT SPRINGS VA FAIR      63  62  98 W10       30.25R
LYNCHBURG      FAIR      62  60  93 CALM      30.17R
DANVILLE       MOCLDY    60  58  92 CALM      30.16R
SOUTH BOSTON*  FAIR      58  57  96 CALM      30.15S
MARTINSVILLE   FAIR      55  55 100 CALM      30.19R FOG
ROANOKE        FAIR      64  62  93 CALM      30.17R
BLACKSBURG     FAIR      60  60 100 CALM      30.23R FOG
DUBLIN*        MOCLDY    59  59 100 CALM      30.21S FOG
MARION*        FOG       56  55  96 CALM      30.23S VSB<1/4
HILLSVILLE*    FAIR      62  61  97 CALM      30.21S
RICHLANDS*     FAIR      65  65 100 S3        30.20R
WISE*          FAIR      64  55  72 S5        30.21R
ABINGDON*      FAIR      61  61  99 E3        30.18S
$$

MDZ021>025-VAZ099-100-281100-
SOUTHERN MARYLAND AND THE DELMARVA PENINSULA

CITY           SKY/WX    TMP DP  RH WIND       PRES   REMARKS
PATUXENT RIVER CLEAR     68  58  70 VRB3      30.14R
BAY BRIDGE APT CLEAR     70  61  73 S8        30.13R
LEONARDTOWN    CLEAR     68  59  73 SW6       30.15S
DOVER          CLEAR     69  67  94 S9        30.13R
GEORGETOWN     CLEAR     66  62  87 SW5       30.16R
EASTON         CLEAR     70  66  88 SW6       30.18R
CAMBRIDGE      CLEAR     68  61  77 S3        30.15R
SALISBURY      CLEAR     65  62  90 CALM      30.15R
OCEAN CITY     CLEAR     68  63  84 SW8       30.16R
WALLOPS ISLAND FAIR      64  62  93 S7        30.17R
ACCOMACK*      FAIR      64  61  88 S5        30.17R
$$

NCZ012>017-030>032-281100-
NORTH CENTRAL AND EASTERN NORTH CAROLINA

CITY           SKY/WX    TMP DP  RH WIND       PRES   REMARKS
ROANOKE RAPIDS FAIR      55  55 100 CALM      30.16R FOG
RALEIGH        PTCLDY    60  58  92 CALM      30.16S
ELIZABETH CITY CLEAR     62  61  96 CALM      30.17R
AHOSKIE*       CLEAR     56  55  97 CALM      30.16S
EDENTON*       CLEAR    N/A N/A N/A CALM      30.16S
CURRITUCK*     CLEAR     62  62 100 CALM      30.17S
KILL DEVIL HLS CLEAR     63  62  94 CALM      30.15S
MANTEO         NOT AVBL
CAPE HATTERAS  CLEAR     70  67  90 E5        30.15R
TARBORO*       FAIR      55  55  99 CALM      30.16S FOG
GOLDSBORO      CLEAR     59  59 100 CALM      30.14R
WASHINGTON     PTCLDY    59  58  96 CALM      30.15R
GREENVILLE     FOG       57  57 100 CALM      30.16S VSB 1
NEW BERN       FOG       63  60  90 CALM      30.15S VSB 3/4
WILMINGTON     PTCLDY    64  63  96 NE5       30.12R
$$

VAZ048-281100-
ELSEWHERE

CITY           SKY/WX    TMP DP  RH WIND       PRES   REMARKS
HARRISBURG PA  PTCLDY    68  64  87 CALM      30.11R
BALTIMORE      PTCLDY    67  63  87 CALM      30.12R
ANNAPOLIS      CLEAR     68  63  84 SE5       30.12R
ANDREWS AFB    FAIR      68  60  76 S8        30.12R
PHILADELPHIA   MOCLDY    68  59  73 S6        30.14R
HENDERSON NC   CLEAR     60  56  88 CALM      30.16S
GREENSBORO     MOCLDY    63  60  90 CALM      30.16R
ROCKY MOUNT    CLEAR     56  56 100 CALM      30.16R FOG
$$

VAZ100-281100-
MARINE

STATION/POSITION TIME  TEMP    WIND        PRES    WAVE   SWELL
                       AIR SEA DIR/SP/G            HT/PER HT/PER
                 (UTC) (F)     (DEG/KT/KT) (MB)    (FT/S) (FT/S)
BRANDYWINE LGT   0900   67     210/ 12/ 14 1020.4R
CAPE MAY NJ      0900   67 67  190/  6/  8 1020.4R
LEWES DE         0900   69 61  230/  8/ 12 1020.3R
15NM E FENWICK I 0950   63 60              1021.5R   2/ 8
OCEAN-CITY-INLET 0900   62 57  210/ 10/ 12 1021.3R
WACHAPREAGUE VA  0900   68 72  220/  3/  4 1020.8R
THOMAS POINT MD  1000   69 65  170/ 11/ 11 1021.5R
GOOSES REEF MD   1000   69 66  180/ 10/ 12 1021.4R   1
COVE POINT MD    0900   69     200/  9/ 11 1020.8R
SOLOMONS ISLAND  0900   70 67  170/  4/  5   N/A
BISHOPS HEAD MD  0900   70 72  190/  9/ 11 1020.8R
PINEY POINT MD   0900          210/  5/  6   N/A
POTOMAC MD       1000   68 67  250/  6/  6 1020.1R   1/ 2
CAMBRIDGE MD     0900   70 66  180/  5/  8 1019.3R
LEWISETTA VA     0900   69 65  240/  9/ 13 1020.0R
RAPPAHANNOCK LGT 0900          190/  9/ 10 1021.6R
STINGRAY PT      1000   69 67  210/  6/  8 1021.6R   1
YORK RVR RNG VA  0900   69     210/  7/  8 1020.5R
YORKTOWN VA      0900   69 68  190/  2/  4 1020.9R
JAMESTOWN VA     1000   67 73  150/  4/  6   N/A     0
DOMINION TERM VA 0900   68     210/  6/  7 1021.2R
KIPTOPEKE VA     0900      69  170/  4/  5   N/A
CHES BAY BRIDGE  0900   67 61  170/  5/  6 1021.1R
CAPE HENRY VA    0900   67     190/  6/  8   N/A
CHESAPEAKE LGHT  0900   67     210/  9/  9 1022.0R
WILLOUBY STN VA  0900   69     200/  7/  8 1022.1R
CAPE HENRY BUOY  0912      66                N/A     2/ 8
1ST LANDING BUOY 1000   65 66  150/  2/  2 1021.6R   1
CAPE CHARLES BUO 0926      65                N/A     2/ 8   2/ 8
OFFSHORE WE BUOY 0921      68                N/A     2/ 8   2/ 8
64NM E OF VA BCH 0950   65 62   70/  4/  6 1021.7R   3/ 8   3/ 8
DUCK PIER NC     0900   65 59  130/  5/  5 1020.5R
44100 DUCK FRF   0924      66                N/A     3/ 7
44056 DUCK FRF   0911      63                N/A     2/ 7
OREGON INLET NC  0900   67 75   50/  3/  5 1020.8R
HATTERAS NC      0900   74 74  120/  3/  6 1020.1R
DIAMOND SHLS NC  0950   76 78  110/ 10/ 14 1020.6R   4/ 9   3/ 9
CAPE LOOKOUT NC1F1C2F2C3F3C4F4C5F5C6F6C7F7C8M1C9!


USA.gov is the U.S. government's official web portal to all federal, state and local government web resources and services.